Location: Hickory_CSC
(35.7330°N, 81.3330°W)
Time: 17:35:09
(UTC-05:00)

ISS - All Passes

Search period start: 27 February 2015 00:00
Search period end: 09 March 2015 01:00
Orbit: 397 x 408 km, 51.6° (Epoch: 27 February)

Date Brightness Start Highest point End Pass type
(mag) Time Alt. Az. Time Alt. Az. Time Alt. Az.
27 Feb - 09:27:44 10° S 09:30:19 23° SE 09:32:57 10° ENE daylight
27 Feb - 11:03:49 10° W 11:06:40 28° NW 11:09:31 10° NNE daylight
27 Feb - 15:58:06 10° N 15:59:38 13° NNE 16:01:14 10° NE daylight
27 Feb - 17:33:14 10° NW 17:36:29 90° SW 17:39:44 10° SE daylight
28 Feb - 08:36:41 10° SE 08:37:31 11° SE 08:38:30 10° ESE daylight
28 Feb - 10:10:27 10° WSW 10:13:37 55° NW 10:16:48 10° NE daylight
28 Feb - 16:40:23 10° NW 16:43:29 41° NE 16:46:36 10° ESE daylight
28 Feb - 18:17:43 10° W 18:19:42 15° SW 18:21:34 10° SSW daylight
01 Mar - 09:17:27 10° SW 09:20:38 65° SE 09:23:50 10° NE daylight
01 Mar - 10:55:23 10° WNW 10:57:22 15° NNW 10:59:18 10° N daylight
01 Mar - 15:47:42 10° NNW 15:50:21 23° NNE 15:53:01 10° E daylight
01 Mar - 17:23:53 10° WNW 17:26:49 31° SW 17:29:43 10° SSE daylight
02 Mar - 08:24:53 10° SSW 08:27:41 28° SE 08:30:31 10° ENE daylight
02 Mar - 10:01:23 10° W 10:04:06 24° NNW 10:06:48 10° NNE daylight
02 Mar - 14:55:14 10° N 14:57:04 14° NNE 14:58:58 10° ENE daylight
02 Mar - 16:30:36 10° NW 16:33:50 72° SW 16:37:04 10° SE daylight
03 Mar - 07:33:08 10° SSE 07:34:44 13° SE 07:36:28 10° E daylight
03 Mar - 09:07:47 10° WSW 09:10:54 45° NW 09:14:01 10° NE daylight
03 Mar - 15:37:34 10° NW 15:40:44 50° NE 15:43:53 10° ESE daylight
03 Mar - 17:15:26 10° WSW 17:16:51 12° SW 17:18:10 10° SSW daylight
04 Mar - 08:14:32 10° SW 08:17:45 81° SE 08:20:59 10° NE daylight
04 Mar - 09:52:50 10° WNW 09:54:33 13° NNW 09:56:13 10° N daylight
04 Mar - 14:44:41 10° NNW 14:47:29 26° NNE 14:50:17 10° E daylight
04 Mar - 16:21:06 10° WNW 16:23:51 25° SW 16:26:35 10° S daylight
05 Mar - 07:21:41 10° SSW 07:24:38 34° SE 07:27:38 10° ENE daylight
05 Mar - 08:58:34 10° W 09:01:08 21° NNW 09:03:40 10° NNE daylight
05 Mar - 13:52:00 10° NNW 13:54:05 16° NNE 13:56:13 10° ENE daylight
05 Mar - 15:27:34 10° NW 15:30:46 58° SW 15:33:56 10° SE daylight
06 Mar - 06:29:30 10° S 06:31:33 16° SE 06:33:41 10° E daylight
06 Mar - 08:04:43 10° WSW 08:07:46 38° NW 08:10:48 10° NNE daylight
06 Mar - 12:59:54 10° N 13:00:34 10° NNE 13:01:17 10° NE daylight
06 Mar - 14:34:20 10° NW 14:37:33 61° NE 14:40:45 10° ESE daylight
07 Mar - 07:11:14 10° SW 07:14:27 83° NW 07:17:41 10° NE daylight
07 Mar - 08:49:55 10° NW 08:51:19 12° NNW 08:52:41 10° N daylight
07 Mar - 13:41:17 10° NNW 13:44:11 30° NE 13:47:06 10° E daylight
07 Mar - 15:17:56 10° WNW 15:20:29 21° SW 15:22:59 10° S daylight
08 Mar - 07:18:08 10° SSW 07:21:12 42° SE 07:24:16 10° ENE visible
08 Mar - 08:55:20 10° WNW 08:57:45 19° NNW 09:00:08 10° NNE daylight
08 Mar - 13:48:24 10° NNW 13:50:41 18° NNE 13:53:00 10° ENE daylight
08 Mar - 15:24:09 10° WNW 15:27:16 46° SW 15:30:23 10° SSE daylight
